User: anonymous   Login
Location: Mascot Post Office (historical)
(40.2645°N, 99.5462°W)
Time: 07:12:46
(UTC+00:00)
Language:

Cosmos 1300 Rocket - Orbit

View from above orbital plane
View from above orbital plane
View from above satellite
View from above satellite

Ground track
Ground track

The orbit data is extracted from the following two-line orbital elements,

1 12786U 81082B   20272.73078794 +.00000089 +00000-0 +76181-5 0  9996
2 12786 082.4855 277.0585 0016023 253.5248 106.4207 14.84798899091718
Epoch (UTC): 28 September 2020 17:32:20
Eccentricity: 0.0016023
inclination: 82.4855°
perigee height: 603 km
apogee height: 625 km
right ascension of ascending node: 277.0585°
argument of perigee: 253.5248°
revolutions per day: 14.84798899
mean anomaly at epoch: 106.4207°
orbit number at epoch: 9171

The dashed part of the orbit path shows where the satellite is in the earth's shadow,  

DLR